Погода в Булае

Россия / Удмуртская Республика     56°40′55″N   52°18′58″E
темп.,
°C
ветер,
м/с
пор.,
м/с
влажн.,
%
обл.,
%
осадки,
мм/ч
давл.,
гПа
погр.,
м
21 апреля, ср
ср2101:00+1юв34540 0.0 103147
04:000вюв385712 0.0 1031117
07:00+2юв51154100 0.0 1031334
10:00+7юв71339100 0.0 1029936
13:00+9ююв81238100 0.0 10271036
16:00+10ююв71240100 0.1 10271261
19:00+7ююв61344100 0.0 1026584
22:00+5ю61467100 0.1 1026878
22 апреля, чт
чт2201:00+3ююв81796100 1.3 1025848
04:00+2ю71597100 2.8 1025715
07:00+2ю61397100 0.6 1025685
10:00+4ю61196100 0.6 1026617
13:00+5ю51093100 0.1 1027621
16:00+5ююв51093100 0.1 1027641
19:00+4ююв51095100 0.0 1027538
22:00+4ююв5109688 0.0 1027393
23 апреля, пт
пт2301:00+3ю4895100 0.0 1027351
04:00+3ююв4997100 0.0 1027359
07:00+3ююв4995100 0.1 1028330
10:00+4ю3791100 0.3 1028371
13:00+6ю368798 0.2 1028498
16:00+9ю247699 0.3 1027396
19:00+8юв358099 0.0 1027111
22:00+7вюв3786100 0.0 1027180
24 апреля, сб
сб2401:00+4вюв4892100 0.0 1026206
04:00+4всв4991100 0.0 1024264
07:00+5всв4985100 0.0 1022500
10:00+6в5886100 0.1 1020552
13:00+5всв3693100 0.5 1018333
16:00+5всв3796100 1.4 1017372
19:00+5в3698100 0.8 1015265
22:00+5в2798100 1.1 1013301
25 апреля, вс
вс2501:00+5в2498100 0.1 1012156
04:00+5ююв2298100 0.9 101171
07:00+5юв2498100 0.7 1010133
10:00+6юв379799 0.9 1009360
13:00+8ююз4578100 0.2 10081081
16:00+3зюз71197100 2.8 1010661
19:00+5з51285100 0.4 1012780
22:00+3юз37916 0.4 1014124